Probability
0 0 0 0 0 0 0 0 0 0 0 0 0 0 0 0 0 0 0 0 0 0 0 0 0 3 3 0 3 3 3 3 6 3 3 3 0 0 0 0 0 0 0 0
0 0 0 0 0 0 0 0 0 0 0 0 0 0 0 0 0 0 0 0 0 0 0 0 0 0 0 0 0 3 3 3 3 0 0 0 0 0 0 0 0 0 0 0
0 0 0 0 0 0 0 0 0 0 0 0 0 0 0 0 0 0 0 0 0 0 0 0 0 0 0 0 0 0 3 3 3 0 0 0 0 0 0 0 0 0 0 0
0 0 0 0 0 0 0 0 0 0 0 0 0 0 0 0 0 0 0 0 0 0 0 0 0 0 0 0 0 0 0 3 3 0 0 0 0 0 0 0 0 0 0 0
0 0 0 0 0 0 0 0 0 0 0 0 0 0 0 0 0 0 0 0 0 0 0 0 0 0 0 0 0 0 0 0 0 0 0 0 0 0 0 0 0 0 0 0
0 0 0 0 0 0 0 0 0 0 0 0 0 0 0 0 0 0 0 0 0 0 0 0 0 0 0 0 0 0 0 0 0 0 0 0 0 0 0 0 0 0 0 0
0 0 0 0 0 0 0 0 0 0 0 0 0 0 0 0 0 0 0 0 0 0 0 0 0 0 0 0 0 0 0 0 0 0 0 0 0 0 0 0 0 0 0 0
0 0 0 0 0 0 0 0 0 0 0 0 0 0 0 0 0 0 0 0 0 0 0 0 0 0 0 0 0 0 0 0 0 0 0 0 0 0 0 0 0 0 0 0
0 0 0 0 0 0 0 0 0 0 0 0 0 0 0 0 0 0 0 0 0 0 0 0 0 0 0 0 0 0 0 0 0 0 0 0 0 0 0 0 0 0 0 0
0 0 0 0 0 0 0 0 0 0 0 0 0 0 0 0 0 0 0 0 0 0 0 0 0 0 0 0 0 0 0 0 0 0 0 0 0 0 0 0 0 0 0 0
0 0 0 0 0 0 0 0 0 0 0 0 0 0 0 0 0 0 0 0 0 0 0 0 0 0 0 0 0 0 0 0 0 0 0 0 0 0 0 0 0 0 0 0
0 0 0 0 0 0 0 0 0 0 0 0 0 0 0 0 0 0 0 0 0 0 0 0 0 0 0 0 0 0 0 0 0 0 0 0 0 0 0 0 0 0 0 0
0 0 0 0 0 0 0 0 0 0 0 0 0 0 0 0 0 0 0 0 0 0 0 0 0 0 0 0 0 0 0 0 0 0 0 0 0 0 0 0 0 0 0 0
0 0 0 0 0 0 0 0 0 0 0 0 0 0 0 0 0 0 0 0 0 0 0 0 0 0 0 0 0 0 0 0 0 0 0 0 0 0 0 0 0 0 0 0
0 0 0 0 0 0 0 0 0 0 0 0 0 0 0 0 0 0 0 0 0 0 0 0 0 0 0 0 0 0 0 0 0 0 0 0 0 0 0 0 0 0 0 0
0 0 0 0 0 0 0 0 0 0 0 0 0 0 0 0 0 0 0 0 0 0 0 0 0 0 0 0 0 0 0 0 0 0 0 0 0 0 0 0 0 0 0 0
0 0 0 0 0 0 0 0 0 0 0 0 0 0 0 0 0 0 0 0 0 0 0 0 0 0 0 0 0 0 0 0 0 0 0 0 0 0 0 0 0 0 0 0
0 0 0 0 0 0 0 0 0 0 0 0 0 0 0 0 0 0 0 0 0 0 0 0 0 0 0 0 0 0 0 0 0 0 0 0 0 0 0 0 0 0 0 0
0 0 0 0 0 0 0 0 0 0 0 0 0 0 0 0 0 0 0 0 0 0 0 0 0 0 0 0 0 0 0 0 0 0 0 0 0 0 0 0 0 0 0 0
0 0 0 0 0 0 0 0 0 0 0 0 0 0 0 0 0 0 0 0 0 0 0 0 0 0 0 0 0 0 0 0 0 0 0 0 0 0 0 0 0 0 0 0
0 0 0 0 0 0 0 0 0 0 0 0 0 0 0 0 0 0 0 0 0 0 0 0 0 0 0 0 0 0 0 0 0 0 0 0 0 0 0 0 0 0 0 0
0 0 0 0 0 0 0 0 0 0 0 0 0 0 0 0 0 0 0 0 0 0 0 0 0 0 0 0 0 0 0 0 0 0 0 0 0 0 0 0 0 0 0 0
0 0 0 0 0 0 0 0 0 0 0 0 0 0 0 0 0 0 0 0 0 0 0 0 0 0 0 0 0 0 0 0 0 0 0 0 0 0 0 0 0 0 0 0
0 0 0 0 0 0 0 0 0 0 0 0 0 0 0 0 0 0 0 0 0 0 0 0 0 0 0 0 0 0 0 0 0 0 0 0 0 0 0 0 0 0 0 0
0 0 0 0 0 0 0 0 0 0 0 0 0 0 0 0 0 0 0 0 0 0 0 0 0 0 0 0 0 0 0 0 0 0 0 0 0 0 0 0 0 0 0 0
0 0 0 0 0 0 0 0 0 0 0 0 0 0 0 0 0 0 0 0 0 0 0 0 0 0 0 0 0 0 0 0 0 0 0 0 0 0 0 0 0 0 0 0
Height
5608 5609 5608 5611 5612 5615 5617 5620 5624 5629 5632 5637 5642 5648 5652 5656 5661 5667 5672 5678 5683 5689 5693 5697 5701 5705 5710 5714 5719 5723 5727 5732 5736 5740 5744 5747 5751 5755 5759 5762 5765 5768 5771 5773
5603 5602 5603 5604 5605 5608 5610 5613 5617 5621 5625 5628 5633 5638 5643 5647 5652 5658 5663 5669 5674 5679 5684 5689 5693 5698 5702 5707 5711 5715 5719 5724 5728 5732 5735 5738 5742 5746 5750 5753 5756 5759 5762 5765
5597 5598 5597 5597 5599 5601 5603 5607 5610 5614 5617 5620 5625 5629 5634 5638 5643 5649 5654 5660 5665 5670 5676 5681 5685 5690 5694 5699 5703 5708 5712 5716 5720 5723 5727 5730 5733 5737 5741 5744 5748 5751 5754 5757
5592 5592 5591 5592 5593 5595 5598 5601 5604 5607 5610 5613 5617 5621 5627 5631 5636 5641 5647 5652 5657 5662 5667 5672 5676 5681 5686 5691 5695 5699 5703 5708 5712 5715 5719 5722 5725 5729 5733 5736 5740 5743 5746 5749
5589 5587 5587 5587 5589 5589 5592 5595 5598 5601 5604 5607 5611 5614 5620 5623 5628 5634 5640 5645 5650 5654 5659 5663 5668 5673 5678 5682 5686 5691 5695 5699 5704 5707 5711 5714 5717 5721 5725 5728 5732 5735 5738 5740
5586 5583 5582 5583 5584 5585 5587 5590 5593 5595 5598 5601 5606 5608 5613 5618 5623 5629 5634 5638 5643 5647 5652 5656 5660 5664 5669 5673 5678 5683 5687 5691 5696 5699 5703 5706 5709 5713 5716 5720 5724 5727 5730 5732
5583 5581 5579 5579 5580 5581 5583 5586 5588 5590 5592 5596 5601 5602 5608 5613 5618 5622 5626 5631 5635 5640 5644 5649 5652 5656 5661 5665 5670 5674 5679 5683 5687 5691 5695 5698 5701 5705 5708 5712 5716 5719 5721 5724
5579 5579 5577 5576 5577 5578 5580 5582 5585 5586 5588 5592 5595 5598 5604 5608 5611 5615 5619 5623 5627 5631 5636 5640 5644 5648 5652 5657 5662 5666 5670 5674 5678 5682 5686 5690 5693 5696 5700 5704 5707 5710 5713 5715
5576 5576 5574 5573 5574 5575 5576 5578 5581 5582 5583 5587 5590 5594 5599 5602 5605 5608 5612 5615 5619 5624 5628 5632 5636 5640 5644 5648 5653 5657 5661 5666 5670 5674 5677 5681 5684 5688 5692 5695 5698 5702 5705 5707
5573 5572 5572 5571 5571 5572 5574 5575 5577 5578 5579 5581 5585 5589 5594 5597 5600 5603 5606 5609 5613 5616 5620 5624 5628 5632 5636 5640 5644 5648 5652 5656 5661 5665 5669 5672 5676 5679 5683 5687 5690 5693 5696 5699
5570 5569 5569 5568 5568 5569 5571 5572 5573 5574 5576 5578 5580 5587 5589 5591 5594 5597 5600 5602 5605 5609 5612 5616 5620 5623 5627 5631 5635 5639 5643 5647 5652 5656 5660 5664 5667 5671 5674 5678 5681 5684 5688 5690
5567 5566 5565 5565 5565 5565 5566 5568 5569 5571 5573 5574 5576 5583 5583 5585 5588 5591 5593 5596 5598 5601 5604 5608 5611 5615 5619 5622 5626 5630 5634 5639 5643 5647 5651 5654 5658 5662 5665 5669 5672 5676 5679 5681
5564 5562 5561 5561 5563 5563 5562 5563 5565 5566 5568 5570 5572 5578 5578 5580 5582 5584 5586 5589 5591 5594 5597 5600 5603 5606 5610 5614 5617 5621 5626 5630 5634 5638 5642 5646 5649 5653 5656 5660 5663 5666 5669 5672
5559 5559 5558 5558 5557 5557 5558 5559 5560 5561 5562 5564 5567 5570 5573 5574 5576 5578 5580 5582 5584 5587 5590 5593 5595 5598 5602 5605 5609 5613 5616 5621 5625 5629 5633 5637 5641 5644 5647 5650 5654 5657 5660 5663
5555 5555 5554 5553 5552 5553 5554 5555 5555 5556 5557 5559 5562 5564 5566 5568 5569 5571 5573 5575 5577 5580 5582 5585 5588 5591 5594 5597 5601 5604 5607 5612 5616 5620 5624 5628 5631 5635 5638 5641 5644 5648 5651 5654
5551 5550 5549 5550 5549 5549 5549 5550 5550 5551 5552 5554 5556 5558 5560 5560 5562 5564 5566 5568 5570 5573 5575 5578 5581 5583 5586 5589 5593 5596 5599 5603 5607 5611 5615 5619 5622 5626 5629 5632 5635 5639 5642 5645
5547 5546 5545 5546 5545 5544 5545 5545 5545 5546 5547 5548 5550 5553 5553 5554 5556 5557 5559 5561 5563 5566 5568 5571 5573 5576 5579 5582 5585 5588 5591 5595 5599 5603 5606 5610 5613 5616 5619 5623 5626 5629 5633 5636
5543 5541 5540 5540 5541 5540 5543 5540 5540 5541 5542 5543 5544 5545 5546 5548 5549 5551 5552 5554 5556 5559 5561 5563 5566 5569 5571 5574 5577 5580 5583 5586 5590 5594 5597 5601 5604 5607 5610 5613 5617 5620 5623 5626
5539 5537 5536 5535 5534 5535 5537 5535 5535 5536 5537 5538 5538 5539 5541 5541 5543 5545 5546 5547 5549 5552 5554 5556 5558 5561 5563 5566 5569 5572 5575 5578 5582 5585 5588 5592 5595 5598 5601 5604 5608 5611 5614 5617
5535 5533 5532 5530 5529 5530 5532 5530 5529 5531 5532 5533 5533 5534 5535 5536 5537 5539 5539 5540 5542 5544 5547 5549 5551 5553 5556 5559 5561 5564 5567 5570 5574 5577 5580 5583 5586 5589 5593 5596 5599 5601 5604 5607
5531 5529 5528 5526 5525 5525 5526 5525 5525 5527 5528 5527 5527 5528 5529 5529 5531 5532 5533 5534 5535 5537 5539 5541 5543 5546 5548 5551 5554 5557 5559 5562 5565 5568 5571 5575 5578 5581 5584 5587 5590 5592 5595 5598
5526 5525 5523 5522 5521 5523 5521 5520 5520 5521 5521 5521 5521 5522 5523 5523 5524 5525 5526 5527 5528 5530 5531 5533 5535 5538 5541 5543 5546 5549 5552 5555 5557 5560 5563 5566 5569 5572 5575 5578 5581 5583 5586 5589
5522 5521 5519 5519 5520 5517 5515 5515 5515 5515 5515 5515 5515 5516 5516 5517 5518 5519 5519 5520 5521 5522 5524 5526 5528 5531 5533 5536 5538 5541 5544 5547 5549 5552 5555 5557 5560 5563 5566 5569 5572 5575 5577 5580
5518 5516 5514 5513 5513 5512 5511 5510 5509 5509 5509 5509 5509 5510 5510 5510 5511 5512 5513 5514 5514 5515 5517 5519 5521 5523 5525 5528 5530 5533 5536 5539 5541 5544 5546 5549 5551 5554 5557 5560 5563 5566 5568 5571
5513 5510 5509 5508 5507 5506 5506 5505 5504 5503 5503 5503 5503 5503 5504 5504 5505 5506 5506 5507 5508 5509 5510 5512 5513 5516 5518 5520 5522 5525 5528 5531 5533 5535 5537 5540 5542 5545 5548 5551 5554 5557 5560 5562
5507 5505 5503 5503 5502 5501 5500 5499 5498 5497 5497 5497 5497 5497 5498 5498 5498 5499 5499 5500 5501 5502 5504 5505 5506 5508 5510 5512 5514 5517 5520 5523 5525 5527 5530 5532 5534 5537 5540 5543 5546 5548 5551 5553
Wind_Speed
22 25 28 29 31 32 34 35 36 37 38 41 42 42 42 44 44 45 45 44 43 42 43 42 42 42 42 42 41 41 42 42 42 43 42 42 41 41 41 41 40 39 39 38
20 22 24 26 28 30 32 33 34 35 36 39 42 42 42 42 43 44 43 44 43 42 42 42 43 42 42 43 43 41 42 42 42 42 42 42 42 42 43 43 42 40 40 40
21 20 22 24 24 27 30 32 32 33 34 37 40 42 42 43 43 43 42 43 43 44 43 43 43 43 42 42 42 42 41 41 42 42 42 41 41 43 43 42 41 40 40 40
20 20 21 22 22 25 28 30 31 32 33 34 37 40 41 41 42 42 42 42 42 43 43 43 43 42 42 42 42 42 41 41 42 42 43 43 41 42 42 41 40 40 40 40
19 20 20 21 21 24 25 27 29 30 32 33 34 37 39 39 39 40 41 41 41 41 42 42 42 42 42 42 42 42 42 42 41 41 42 43 42 41 41 40 41 40 39 40
19 18 18 18 20 23 24 24 26 29 31 32 31 33 36 36 36 37 39 41 40 40 41 41 41 42 42 42 42 43 43 43 43 42 42 43 42 42 41 40 40 40 39 39
17 16 16 16 18 21 23 23 24 27 29 30 29 31 33 33 34 35 37 38 39 40 41 41 41 41 43 43 42 42 42 42 43 43 42 43 43 43 42 42 40 39 38 38
17 15 15 16 17 18 21 22 24 26 27 28 28 30 31 32 33 33 35 37 38 39 40 41 41 41 42 42 42 42 43 42 43 42 42 42 42 42 42 42 41 39 38 39
18 15 15 16 17 17 19 22 24 26 27 27 27 27 28 30 31 32 33 35 37 39 40 40 40 40 41 42 42 43 43 44 43 42 42 42 42 42 42 41 41 40 39 39
19 17 15 16 17 18 20 21 23 25 26 27 26 26 26 27 28 29 32 34 35 37 39 40 39 39 40 41 42 43 44 44 44 44 43 42 42 42 42 42 42 42 41 39
19 18 17 16 17 18 20 21 23 24 25 26 26 25 26 28 27 28 29 32 34 35 37 38 38 39 39 41 42 43 43 43 43 44 43 43 43 43 43 43 43 42 41 40
19 18 17 17 17 18 20 22 23 23 24 25 26 25 25 27 28 28 28 30 32 34 35 37 37 39 40 40 41 42 43 43 42 42 42 43 43 43 44 43 42 42 41 40
20 19 18 18 18 19 20 22 23 24 25 25 25 24 24 26 26 27 27 28 30 32 33 34 35 37 39 39 40 41 42 43 42 42 42 42 43 44 44 43 42 42 42 40
21 20 19 19 19 19 20 22 23 24 24 24 23 24 24 25 26 26 27 28 29 30 32 33 34 36 37 37 38 39 41 42 42 42 42 41 42 42 42 43 42 42 41 41
20 20 20 19 20 21 20 22 24 25 25 25 23 23 24 25 26 26 26 28 28 29 30 31 31 33 34 35 35 36 38 40 41 42 41 41 42 42 42 42 42 41 41 40
19 19 19 18 19 21 21 22 23 24 24 25 25 24 24 25 26 26 27 27 29 29 30 31 31 31 32 33 34 35 36 38 38 40 40 41 41 41 41 41 42 41 40 40
19 18 18 17 18 19 20 20 21 22 23 23 24 24 25 25 25 26 27 27 29 30 31 31 31 32 32 32 33 34 35 36 37 38 39 39 39 39 39 40 40 40 40 39
18 18 18 18 18 18 18 19 20 20 21 22 23 24 24 25 25 26 27 27 28 29 30 31 32 32 32 32 32 33 35 36 36 37 38 38 38 37 38 38 39 40 40 39
18 18 18 19 19 19 18 18 20 21 20 21 22 23 24 25 25 26 27 28 28 28 28 29 30 30 31 32 32 33 34 35 35 36 37 37 37 37 37 37 38 39 39 39
18 17 17 18 19 18 18 18 19 20 20 20 21 23 23 24 25 26 27 27 28 28 28 28 29 29 30 30 31 32 33 34 34 34 34 35 36 37 37 37 37 37 38 39
18 17 17 17 18 18 17 19 19 20 20 21 22 22 23 23 25 25 26 27 28 29 30 30 31 31 30 30 30 31 32 32 33 34 34 34 35 36 36 36 36 36 37 37
18 18 18 18 18 17 17 18 19 20 20 20 22 23 24 25 25 25 25 26 28 29 30 30 31 31 31 31 30 31 31 31 32 32 33 33 34 35 35 36 36 36 36 36
18 18 19 19 19 18 18 18 19 20 20 21 22 23 25 25 25 25 24 25 26 27 28 29 30 30 31 31 31 31 31 31 32 32 32 32 33 35 35 35 35 35 36 36
18 19 20 20 20 19 19 19 20 20 21 21 22 23 24 24 23 23 24 24 24 25 26 27 28 29 30 30 31 32 31 31 32 32 32 33 33 34 35 35 35 35 35 35
19 19 20 20 20 19 19 20 20 21 21 22 22 23 23 24 24 24 24 24 25 24 25 25 26 28 29 30 31 32 31 31 31 31 31 32 32 34 34 34 34 34 34 34
20 20 20 19 19 19 19 20 20 20 20 21 21 22 22 23 24 24 25 25 25 25 24 24 25 26 27 29 31 32 32 31 31 31 30 31 31 32 32 32 33 33 33 32
Wind_Direction
275 267 259 256 253 252 249 247 244 240 238 237 235 234 232 233 233 233 233 233 234 233 233 234 234 235 234 234 235 236 236 237 237 237 238 239 239 241 242 243 245 247 249 250
279 271 264 259 254 250 248 247 245 241 239 238 235 233 233 232 233 233 234 233 233 232 232 233 233 234 235 235 235 236 236 237 237 237 239 239 239 240 241 243 244 246 249 250
286 276 267 261 254 248 246 246 244 242 240 239 238 235 233 231 232 232 232 232 232 232 232 233 233 232 233 233 234 236 236 236 237 238 239 241 241 241 242 243 245 247 249 251
293 277 268 262 254 249 246 243 243 242 240 239 239 238 234 234 233 231 232 232 232 233 232 233 232 233 234 233 234 235 236 236 237 238 238 240 242 242 242 242 245 247 250 251
295 280 271 262 254 250 247 244 243 242 240 240 239 240 236 235 234 232 232 233 233 234 234 233 233 232 234 233 234 236 236 236 237 238 239 240 241 242 241 242 244 247 251 252
296 281 270 262 252 248 244 242 243 241 240 242 239 241 237 236 235 234 234 234 234 235 235 235 234 232 233 232 235 237 237 237 238 239 240 240 241 241 242 243 244 248 250 253
296 285 270 261 253 244 239 238 241 241 240 243 241 242 239 237 237 236 236 236 236 236 236 236 236 235 234 232 234 236 237 237 239 240 241 241 241 241 242 243 244 247 250 252
301 287 276 261 257 248 239 238 238 240 241 242 242 243 241 239 238 238 237 237 237 236 236 237 238 238 236 235 235 236 236 237 238 239 240 240 241 241 242 243 244 246 249 251
304 291 278 266 261 251 243 240 239 243 243 245 245 244 240 240 240 239 238 238 238 237 237 238 240 240 239 237 236 237 237 237 238 239 239 239 240 242 242 244 245 247 249 252
305 293 279 267 262 251 245 243 241 243 247 248 247 245 242 242 242 242 240 239 240 240 239 240 242 242 241 239 238 238 238 238 238 238 239 239 240 242 243 244 246 247 249 252
303 295 286 273 265 251 244 240 241 244 246 249 250 246 243 244 244 244 242 241 241 242 242 241 241 242 242 240 239 239 238 238 238 239 240 241 241 242 243 245 247 247 249 251
302 294 285 275 268 253 248 244 244 247 246 248 249 248 246 246 245 245 246 244 242 242 241 241 242 242 241 241 240 239 238 238 237 238 240 242 242 243 244 245 246 247 248 250
298 294 285 273 264 254 249 244 247 250 250 249 249 248 248 249 248 247 247 245 244 243 241 241 242 243 242 241 241 240 238 238 238 238 239 241 242 243 245 245 246 247 249 250
292 290 285 277 266 260 254 248 250 251 250 251 251 250 247 249 250 250 250 248 245 244 243 244 244 243 242 241 240 239 238 238 239 239 240 240 242 244 246 246 246 247 249 251
292 288 283 276 267 265 261 256 255 251 249 251 251 251 250 249 250 250 250 248 246 244 244 244 243 242 242 241 240 239 238 238 239 240 241 242 242 244 246 246 247 248 250 252
294 290 283 276 271 267 264 260 258 254 251 251 252 251 250 250 249 249 249 248 248 247 244 244 242 240 240 241 240 239 238 237 238 239 241 242 244 245 246 247 248 249 251 252
294 289 285 281 276 270 264 260 259 256 253 251 251 249 249 249 248 248 249 250 248 247 244 243 241 240 241 242 241 239 239 238 239 239 241 242 243 245 246 246 247 248 250 252
294 289 286 281 277 275 271 262 258 255 254 252 250 248 248 248 249 250 251 250 250 248 245 243 241 241 242 243 242 241 241 240 240 242 243 244 245 246 246 246 246 248 250 251
295 290 287 283 278 277 275 267 259 257 256 255 252 249 250 250 250 251 252 251 249 248 247 244 243 241 242 243 243 243 242 241 241 244 245 245 246 247 248 247 246 248 250 251
297 291 287 285 281 282 277 270 264 260 258 256 257 255 254 255 253 252 252 251 249 247 246 245 242 241 241 242 242 243 242 241 242 243 245 246 247 248 248 247 247 249 250 250
297 291 286 285 284 284 279 271 265 262 262 260 259 258 258 258 256 254 252 251 249 249 249 248 244 242 243 243 243 243 242 242 243 244 245 246 247 248 248 248 248 249 250 250
296 293 289 287 287 286 279 273 267 265 263 263 262 261 260 259 257 255 255 253 251 250 250 249 246 244 244 243 243 244 243 243 244 245 246 246 247 247 248 248 248 249 251 252
294 291 290 287 286 283 279 276 271 267 265 263 264 263 261 258 257 256 256 255 254 252 250 247 245 244 244 243 242 242 242 243 244 245 246 247 247 247 247 248 248 250 252 254
294 291 290 288 284 280 278 277 273 270 267 266 266 265 262 258 257 256 256 254 252 250 248 246 245 244 244 243 242 241 242 243 243 245 246 247 248 247 247 248 249 250 252 254
292 291 291 287 283 279 277 277 275 269 267 268 267 265 263 262 259 259 258 255 253 250 249 247 245 245 245 244 241 240 241 243 243 244 246 246 247 247 247 247 248 249 251 252
292 291 289 286 283 280 279 277 275 272 270 268 267 265 264 263 262 259 259 257 254 252 251 249 246 246 246 245 243 242 242 244 244 244 245 246 247 248 248 248 248 249 250 252